Weather History for KEZM - October, 2012

Change the Weather History Date:

Sunday, October 28, 2012

  Actual Average Record
Temperature  
Mean Temperature 62 °F -  
Max Temperature 73 °F 75 °F 83 °F (2014)
Min Temperature 51 °F 50 °F 53 °F (2014)
Degree Days  
Heating Degree Days 3    
Growing Degree Days 12 (Base 50)    
Moisture  
Dew Point 48 °F    
Average Humidity 66    
Maximum Humidity 88    
Minimum Humidity 43    
Precipitation  
Precipitation 0.00 in - - ()
Sea Level Pressure  
Sea Level Pressure 29.78 in    
Wind  
Wind Speed 7 mph ()    
Max Wind Speed 16 mph    
Max Gust Speed 26 mph    
Visibility 10.0 miles    
Events      
Averages and records for this station are not official NWS values.
T = Trace of Precipitation, MM = Missing Value Source: Averaged Metar Reports

Daily Weather History Graph

Daily Weather History Graph

Search for Another Location

Airport or City:

Trip Planner

Search our weather history database for the weather conditions in past years. The results will help you decide how hot, cold, wet, or windy it might be!

Date:

Astronomy

Oct. 28, 2012 Rise Set
Actual Time 7:46 AM EDT 6:45 PM EDT
Civil Twilight 7:21 AM EDT 7:10 PM EDT
Nautical Twilight 6:52 AM EDT 7:39 PM EDT
Astronomical Twilight 6:23 AM EDT 8:08 PM EDT
Moon 6:02 PM EDT (10/28) 6:40 AM EDT (10/28)
Length of Visible Light 11h 49m
Length of Day
10h 58m
Waxing Gibbous, 99% of the Moon is Illuminated
Oct 28
Waxing Gibbous
Oct 29
Full
Nov 6
Last Quarter
Nov 13
New
Nov 20
First Quarter

Hourly Weather History & Observations

Time (EDT) Temp. Dew Point Humidity Pressure Visibility Wind Dir Wind Speed Gust Speed Precip Events Conditions
12:15 AM 61.7 °F 52.5 °F 72% 29.79 in 10.0 mi NNW 8.1 mph - N/A   Clear
12:35 AM 61.2 °F 52.0 °F 72% 29.79 in 10.0 mi NW 6.9 mph - N/A   Clear
12:55 AM 60.1 °F 52.2 °F 75% 29.79 in 10.0 mi NW 5.8 mph - N/A   Clear
1:15 AM 59.9 °F 51.4 °F 74% 29.79 in 10.0 mi NW 5.8 mph - N/A   Clear
1:35 AM 59.2 °F 51.8 °F 77% 29.79 in 10.0 mi NW 5.8 mph - N/A   Clear
1:55 AM 58.6 °F 51.1 °F 76% 29.78 in 10.0 mi NW 5.8 mph - N/A   Clear
2:15 AM 58.1 °F 50.9 °F 77% 29.77 in 10.0 mi NW 4.6 mph - N/A   Clear
2:35 AM 57.6 °F 50.9 °F 78% 29.78 in 10.0 mi NW 5.8 mph - N/A   Clear
2:55 AM 57.2 °F 50.9 °F 79% 29.77 in 10.0 mi NW 6.9 mph - N/A   Clear
3:15 AM 57.2 °F 50.5 °F 78% 29.77 in 10.0 mi WNW 4.6 mph - N/A   Clear
3:35 AM 56.5 °F 50.2 °F 79% 29.77 in 10.0 mi NW 4.6 mph - N/A   Clear
3:55 AM 56.1 °F 50.2 °F 80% 29.77 in 10.0 mi NW 3.5 mph - N/A   Clear
4:15 AM 55.4 °F 50.0 °F 82% 29.77 in 10.0 mi WNW 4.6 mph - N/A   Clear
4:35 AM 55.2 °F 49.6 °F 81% 29.76 in 10.0 mi WNW 6.9 mph - N/A   Clear
4:55 AM 54.9 °F 49.5 °F 82% 29.76 in 10.0 mi WNW 6.9 mph - N/A   Clear
5:15 AM 54.3 °F 49.3 °F 83% 29.77 in 10.0 mi WNW 5.8 mph - N/A   Clear
5:35 AM 54.0 °F 49.1 °F 84% 29.77 in 10.0 mi WNW 4.6 mph - N/A   Clear
5:55 AM 53.6 °F 49.1 °F 85% 29.76 in 10.0 mi NW 4.6 mph - N/A   Clear
6:15 AM 52.9 °F 48.7 °F 86% 29.77 in 10.0 mi NW 3.5 mph - N/A   Clear
6:35 AM 52.9 °F 48.7 °F 86% 29.77 in 10.0 mi NW 4.6 mph - N/A   Clear
6:55 AM 52.7 °F 48.6 °F 86% 29.77 in 10.0 mi WNW 5.8 mph - N/A   Clear
7:15 AM 52.2 °F 48.4 °F 87% 29.79 in 10.0 mi NW 4.6 mph - N/A   Clear
7:35 AM 52.0 °F 48.4 °F 88% 29.79 in 10.0 mi WNW 4.6 mph - N/A   Clear
7:55 AM 51.8 °F 48.2 °F 88% 29.79 in 10.0 mi WNW 4.6 mph - N/A   Clear
8:15 AM 51.8 °F 48.4 °F 88% 29.79 in 10.0 mi NW 5.8 mph - N/A   Clear
8:35 AM 52.7 °F 48.6 °F 86% 29.80 in 10.0 mi NW 4.6 mph - N/A   Clear
8:55 AM 53.8 °F 48.9 °F 84% 29.80 in 10.0 mi NW 4.6 mph - N/A   Clear
9:15 AM 55.4 °F 49.3 °F 80% 29.81 in 10.0 mi NW 5.8 mph - N/A   Clear
9:35 AM 56.8 °F 49.3 °F 76% 29.81 in 10.0 mi NW 8.1 mph - N/A   Clear
9:55 AM 58.5 °F 49.6 °F 72% 29.80 in 10.0 mi WNW 5.8 mph - N/A   Clear
10:15 AM 60.3 °F 50.0 °F 69% 29.81 in 10.0 mi WNW 9.2 mph - N/A   Clear
10:35 AM 62.4 °F 50.2 °F 64% 29.81 in 10.0 mi WNW 8.1 mph - N/A   Clear
10:55 AM 63.0 °F 50.4 °F 63% 29.81 in 10.0 mi West 9.2 mph - N/A   Clear
11:15 AM 65.1 °F 50.5 °F 59% 29.80 in 10.0 mi NW 10.4 mph - N/A   Clear
11:35 AM 66.4 °F 50.4 °F 56% 29.79 in 10.0 mi NW 8.1 mph - N/A   Clear
11:55 AM 68.0 °F 50.7 °F 54% 29.78 in 10.0 mi NW 6.9 mph - N/A   Clear
12:15 PM 68.9 °F 50.5 °F 52% 29.77 in 10.0 mi WNW 9.2 mph - N/A   Clear
12:35 PM 70.2 °F 50.2 °F 49% 29.76 in 10.0 mi NNW 6.9 mph - N/A   Clear
1:15 PM 71.8 °F 49.8 °F 46% 29.75 in 10.0 mi NNW 8.1 mph 16.1 mph N/A   Clear
1:35 PM 72.3 °F 49.8 °F 45% 29.74 in 10.0 mi WNW 6.9 mph - N/A   Clear
1:55 PM 72.7 °F 49.5 °F 44% 29.73 in 10.0 mi NW 9.2 mph 16.1 mph N/A   Clear
2:15 PM 73.2 °F 49.5 °F 43% 29.72 in 10.0 mi NW 9.2 mph - N/A   Clear
2:35 PM 73.8 °F 49.8 °F 43% 29.72 in 10.0 mi NNW 8.1 mph - N/A   Clear
2:55 PM 73.8 °F 49.8 °F 43% 29.71 in 10.0 mi West 8.1 mph 17.3 mph N/A   Scattered Clouds
3:15 PM 73.4 °F 49.6 °F 43% 29.71 in 10.0 mi WNW 13.8 mph 19.6 mph N/A   Scattered Clouds
3:35 PM 72.5 °F 49.6 °F 44% 29.71 in 10.0 mi WNW 8.1 mph 21.9 mph N/A   Scattered Clouds
3:55 PM 72.5 °F 50.0 °F 45% 29.72 in 10.0 mi West 12.7 mph 20.7 mph N/A   Mostly Cloudy
4:15 PM 73.0 °F 49.8 °F 44% 29.72 in 10.0 mi West 11.5 mph 19.6 mph N/A   Overcast
4:35 PM 70.9 °F 49.3 °F 46% 29.73 in 10.0 mi WNW 12.7 mph 19.6 mph N/A   Overcast
4:55 PM 68.0 °F 48.9 °F 50% 29.73 in 10.0 mi WNW 15.0 mph 24.2 mph N/A   Overcast
5:15 PM 67.6 °F 48.7 °F 51% 29.74 in 10.0 mi NW 16.1 mph 21.9 mph N/A   Overcast
5:35 PM 64.9 °F 48.2 °F 55% 29.75 in 10.0 mi WNW 12.7 mph 20.7 mph N/A   Mostly Cloudy
5:55 PM 63.0 °F 48.2 °F 59% 29.75 in 10.0 mi NW 10.4 mph 20.7 mph N/A   Scattered Clouds
6:15 PM 62.4 °F 47.8 °F 59% 29.76 in 10.0 mi NW 11.5 mph 18.4 mph N/A   Overcast
6:35 PM 62.1 °F 47.3 °F 58% 29.77 in 10.0 mi NW 11.5 mph 18.4 mph N/A   Overcast
6:55 PM 60.8 °F 46.4 °F 59% 29.78 in 10.0 mi NNW 13.8 mph 20.7 mph N/A   Overcast
7:15 PM 60.1 °F 45.5 °F 59% 29.79 in 10.0 mi NNW 11.5 mph 19.6 mph N/A   Overcast
7:35 PM 59.4 °F 44.6 °F 58% 29.80 in 10.0 mi NW 13.8 mph 24.2 mph N/A   Overcast
7:55 PM 58.6 °F 43.7 °F 58% 29.81 in 10.0 mi NW 11.5 mph 21.9 mph N/A   Overcast
8:15 PM 58.1 °F 43.2 °F 58% 29.81 in 10.0 mi NW 10.4 mph 19.6 mph N/A   Overcast
8:35 PM 57.7 °F 43.0 °F 58% 29.82 in 10.0 mi NW 13.8 mph 19.6 mph N/A   Overcast
8:55 PM 57.6 °F 42.8 °F 58% 29.82 in 10.0 mi NW 15.0 mph 21.9 mph N/A   Overcast
9:15 PM 57.2 °F 42.3 °F 57% 29.82 in 10.0 mi NW 12.7 mph 20.7 mph N/A   Overcast
9:35 PM 56.7 °F 41.4 °F 57% 29.83 in 10.0 mi NW 12.7 mph 19.6 mph N/A   Overcast
9:55 PM 55.8 °F 40.3 °F 56% 29.84 in 10.0 mi NW 16.1 mph 26.5 mph N/A   Overcast
10:15 PM 54.7 °F 40.3 °F 58% 29.84 in 10.0 mi NNW 9.2 mph 18.4 mph N/A   Mostly Cloudy
10:35 PM 53.6 °F 40.8 °F 62% 29.84 in 10.0 mi NW 5.8 mph - N/A   Scattered Clouds
10:55 PM 53.1 °F 41.0 °F 64% 29.85 in 10.0 mi NW 6.9 mph - N/A   Scattered Clouds
11:15 PM 52.7 °F 40.6 °F 64% 29.85 in 10.0 mi NW 9.2 mph - N/A   Clear
11:35 PM 52.7 °F 40.1 °F 62% 29.85 in 10.0 mi NW 9.2 mph - N/A   Clear
11:55 PM 52.0 °F 39.9 °F 63% 29.85 in 10.0 mi NW 11.5 mph 17.3 mph N/A   Clear